{"data":{"norad_id":60116,"epoch":"2026-09-21T11:42:04.529952Z","epoch_age_seconds":96392,"freshness":"FRESH","line1":"1 60116U 24118D   26264.48755243 -.00001119  00000+0 -43776-5 0  9993","line2":"2 60116  53.1600 336.2010 0001137  72.1153 287.9989 15.69702719128748","mean_motion":15.69702719,"eccentricity":0.0001137,"inclination_deg":53.16,"raan_deg":336.201,"arg_perigee_deg":72.1153,"mean_anomaly_deg":287.9989,"bstar":-4.3776e-6,"rev_number":12874,"period_min":91.737115733441,"perigee_km":358.98148845788,"apogee_km":360.51368341272,"semimajor_km":6737.8845859353,"source":"CELESTRAK","updated_at":"2026-09-22T09:00:49.155077Z"}}